Content
SEND FEEDBACK

Daily
Averages
Monthly
Summary
Turkmenistan

KURTILE, TURKMENISTAN


Home > Asia > Turkmenistan
Elevation: 748 feet     Latitude: 37 58N     Longitude: 058 19E

WEATHER
 
SELECT A DAY
Number of Records: 183,486;   Date Range: 3/15/97 - 12/19/14
 
SHARE

PRINT THIS DATA

[ ← Previous Day ]
WEATHER ALMANAC - DECEMBER 7, 2013
[ Next Day → ]
[ °C ]   °F
Weather ElementAverageHighLow
Temperature43.8 °F53.6 °F (3:00 pm)37.4 °F (5:00 am)
Dewpoint36.2 °F39.2 °F (1:00 pm)32 °F (5:00 am)
Humidity73.5 %93 % (6:30 am)48 % (5:00 pm)
Barometer30.12 in30.22 in (11:00 am)30.01 in (11:00 pm)
Wind Speed8.9 mph20.1 mph (2:00 pm)
Weather ElementAverage
Visibility6.2 mi
Wind DirectionSE (140.6 °)

Weather ElementTotal
Precipitation---
Heating Degree Days19.5 (Base 65)
Averaged from 33 records on December 7, 2013
WEATHER CONDITIONS BREAKOUT
WIND DIRECTION BREAKOUT
WEATHER BY HOUR - DECEMBER 7, 2013
[ °C ]   °F
Local TimeTemperatureDewpointHumidityBarometerVisibilityWind DirectionWind SpeedGust SpeedPrecipitationEventsConditions
1:00 AM41.0 °F35.6 °F81 %30.09 in6.2 miSW (220°)6.7 mphMostly Cloudy
2:00 AM40.0 °F35.0 °F76 %30.15 in6.0 miWest (270°)4.5 mphMostly Cloudy
2:00 AM39.2 °F33.8 °F81 %30.09 in6.2 miWest (270°)4.5 mphMostly Cloudy
3:00 AM39.2 °F35.6 °F87 %30.12 in6.2 miSouth (170°)2.2 mphMostly Cloudy
4:00 AM39.2 °F33.8 °F81 %30.12 in6.2 miSouth (170°)4.5 mphMostly Cloudy
5:00 AM39.0 °F34.0 °F77 %30.19 in6.0 miSW (220°)4.5 mphPartly Cloudy
5:00 AM37.4 °F32.0 °F81 %30.15 in6.2 miSW (220°)4.5 mphMostly Cloudy
6:00 AM37.4 °F33.8 °F87 %30.15 in6.2 miSouth (190°)4.5 mphMostly Cloudy
6:30 AM37.4 °F35.6 °F93 %30.15 in6.2 miSE (140°)6.7 mphMostly Cloudy
7:00 AM39.2 °F35.6 °F87 %30.15 in6.2 miSouth (170°)6.7 mphMostly Cloudy
7:30 AM39.2 °F33.8 °F81 %30.15 in6.2 miSouth (190°)4.5 mphMostly Cloudy
8:00 AM39.0 °F35.0 °F81 %30.20 in6.0 miCalmMostly Cloudy
8:00 AM39.2 °F35.6 °F87 %30.15 in6.2 miCalmMostly Cloudy
9:00 AM39.2 °F35.6 °F87 %30.18 in6.2 miESE (110°)4.5 mphMostly Cloudy
10:00 AM44.6 °F35.6 °F71 %30.18 in6.2 miESE (120°)8.9 mphMostly Cloudy
11:00 AM46.4 °F37.4 °F71 %30.18 in6.2 miESE (110°)13.4 mphMostly Cloudy
11:00 AM47.0 °F35.0 °F52 %30.22 in6.0 miESE (120°)13.4 mphPartly Cloudy
12:00 PM48.2 °F37.4 °F66 %30.15 in6.2 miESE (120°)15.7 mphPartly Cloudy
1:00 PM50.0 °F39.2 °F66 %30.15 in6.2 miESE (110°)15.7 mphPartly Cloudy
2:00 PM51.0 °F38.0 °F52 %30.15 in6.0 miSE (130°)20.1 mphScattered Clouds
2:00 PM51.8 °F39.2 °F62 %30.09 in6.2 miSE (130°)17.9 mphPartly Cloudy
3:00 PM53.6 °F39.2 °F58 %30.09 in6.2 miESE (120°)15.7 mphPartly Cloudy
4:00 PM53.6 °F37.4 °F54 %30.06 in6.2 miESE (110°)13.4 mphClear
5:00 PM51.8 °F37.4 °F58 %30.06 in6.2 miESE (110°)13.4 mphClear
5:00 PM52.0 °F38.0 °F48 %30.10 in6.0 miEast (100°)11.2 mph
6:00 PM48.2 °F37.4 °F66 %30.06 in6.2 miEast (100°)11.2 mphPartly Cloudy
7:00 PM46.4 °F37.4 °F71 %30.06 in6.2 miEast (100°)11.2 mphPartly Cloudy
8:00 PM45.0 °F36.0 °F63 %30.11 in6.0 miESE (120°)11.2 mph
8:00 PM44.6 °F37.4 °F76 %30.06 in6.2 miESE (120°)11.2 mphClear
9:00 PM42.8 °F37.4 °F81 %30.06 in6.2 miESE (110°)8.9 mphClear
10:00 PM42.8 °F37.4 °F81 %30.04 in6.2 miESE (110°)8.9 mphClear
11:00 PM40.0 °F36.0 °F80 %30.08 in6.0 miESE (110°)6.7 mph
11:00 PM41.0 °F35.6 °F81 %30.01 in6.2 miESE (110°)6.7 mphClear
Hourly data recorded from UTAA, located miles away from Kurtile, Turkmenistan







STORIES FROM OUR PARTNERS